Location: Westminster College Observatory
(41.1194°N, 80.3291°W)
Time: 17:01:22
(UTC-05:00)

Tiangong 1 - Visible Passes

Search period start: 23 January 2018 00:00
Search period end: 02 February 2018 00:00
Orbit: 260 x 286 km, 42.8° (Epoch: 23 January)

Date Brightness Start Highest point End Pass type
(mag) Time Alt. Az. Time Alt. Az. Time Alt. Az.
23 Jan 0.9 17:55:04 10° W 17:57:32 60° SSW 17:59:57 10° ESE visible
23 Jan 3.9 19:30:52 10° SW 19:31:08 10° SW 19:31:08 10° SW visible
24 Jan 2.0 17:54:07 10° W 17:56:27 36° SSW 17:58:45 10° SE visible
